FENGYUN 1C DEB

Satellite information

Favourite Embed

Satellite Type and Status

DEBRISIN ORBIT

Key statistics

Satellite FENGYUN 1C DEB at a glance.

Uptime

9715

Days in orbit

Revolutions

≈ 14.2

Per day

Orbit

SSO

Sun Synchronous Orbit

Inclination

98.9

Latest

Satellite identification and parameters

Extended collection of information and parameters for FENGYUN 1C DEB.

Object identification

Identified? True

Debris? True

Object name: FENGYUN 1C DEB

International designator: 1999-025AYT

Object number (NORAD): 30905

Object ID (CCSDS): 30905

Country: PEOPLES REPUBLIC OF CHINA (PRC)

Current information (Y/N): Y

RCS size: SMALL

Orbital parameters

Period: 101.563 minutes

Inclination: 98.8892 deg

SMA: 7210.809 km

Apoapsis: 873.636 km

Periapsis: 791.712 km

RAAN: 61.4706 deg

Eccentricy: 0.00568066

Argument of periapsis: 82.6706 deg

Mean anomaly: 278.092 deg

Mean motion: 14.17838619 rev/day

Mean motion (dot): 0.00004229 rev/day2

B* drag term: 0.0020593832 1/REarth

Two-line elements (TLE)

Creation date: Dec. 12, 2025, 10:14 a.m.

Reference frame: TEME

Reference center: EARTH

Epoch: Dec. 12, 2025, 1:46 a.m. UTC

TLE line 0: 0 FENGYUN 1C DEB

TLE line 1: 1 30905U 99025AYT 25346.07391996 .00004229 00000-0 20594-2 0 9995

TLE line 2: 2 30905 98.8892 61.4706 0056807 82.6706 278.0920 14.17838619961138

Live tracking on map

Real-time ground track for satellite FENGYUN 1C DEB.

In-orbit conjunctions

A list of the most updated potential collisions computed for object FENGYUN 1C DEB.

Target Orbit TCA Probability of collision Miss distance Type
COSMOS 1275 DEB LEO 2025-08-16 20:45:53 0.0001106181 202.0 (m) DEBRIS
FENGYUN 1C DEB SSO 2025-07-05 23:15:07 0.0001375192 261.0 (m) DEBRIS
COSMOS 2251 DEB LEO 2024-11-10 18:01:44 0.0007551187 563.0 (m) DEBRIS
THORAD AGENA D DEB LEO 2024-08-29 03:20:43 0.0005566652 119.0 (m) DEBRIS

Associated space launch

Chinese polar orbiting meteorological satellite

FENGYUN 1C DEB was lifted into orbit during the mission ‘Long March 4B | Feng Yun 1C’, on board a Long March 4B space rocket.

The launch took place on May 10, 1999, 1:33 a.m. from Launch Complex 7.

For more information about the launch, click the button.

Launch to space Long March 4B | Feng Yun 1C
Long March 4B | Feng Yun 1C

Agency: N/A

Status: Launch Successful

Launch date: May 10, 1999, 1:33 a.m. UTC

Rocket: Long March 4B

Launch pad: Launch Complex 7

Location: Taiyuan Satellite Launch Center, People's Republic of China

...

Latest news about this satellite

There are no fresh news available about this satellite. Check back as we update our databases every day.


Newsletter sign-up

Weekly statistics, charts and insights to help you stay on top of the space industry.